ACA861 EGLL-CYVR

Flight info

Callsign ACA861
Flight time N/A
Altitude 36000
Route ULTIB T420 TNT UL28 RODOL UM65 TENSO L603 BELOX DCT REMSI DCT GOMUP/M083F360 NATA LIBOR/M083F380 DCT GRIBS/N0487F380 DCT FEDDY DCT TAGIS DCT PIBRO DCT YEK DCT YSF/N0481F400 DCT YMM J527 YZU DCT BOOTH CANUC6
Aircraft B77W/H-SDE1E2E3FGHIJ2J3J4J5M1RWXY/LB1D1

Departure

Time N/A
Airport London Heathrow Airport (EGLL)

Arrival

Time 2026-05-07 19:56
Airport Vancouver International Airport (CYVR)
Time Latitude Longitude Altitude Speed Heading
2026-05-07 19:32 50.58606 -120.75383 40113 ft 455 kts 227°
2026-05-07 19:32 50.56148 -120.78455 40100 ft 456 kts 227°
2026-05-07 19:32 50.51167 -120.84661 40116 ft 457 kts 227°
2026-05-07 19:33 50.48715 -120.87708 39886 ft 453 kts 227°
2026-05-07 19:33 50.46247 -120.90772 39055 ft 454 kts 227°
2026-05-07 19:33 50.43786 -120.93827 38252 ft 455 kts 227°
2026-05-07 19:33 50.41277 -120.96935 37463 ft 455 kts 227°
2026-05-07 19:34 50.38830 -120.99962 36657 ft 455 kts 227°
2026-05-07 19:34 50.36359 -121.03014 35841 ft 454 kts 227°
2026-05-07 19:34 50.33873 -121.06081 35032 ft 454 kts 227°
2026-05-07 19:34 50.31415 -121.09108 34178 ft 454 kts 226°
2026-05-07 19:35 50.28930 -121.12167 33413 ft 454 kts 226°
2026-05-07 19:35 50.26479 -121.15178 32574 ft 455 kts 226°
2026-05-07 19:35 50.24007 -121.18212 31696 ft 458 kts 226°
2026-05-07 19:35 50.21495 -121.21292 30798 ft 460 kts 225°
2026-05-07 19:36 50.18980 -121.24366 30218 ft 454 kts 225°
2026-05-07 19:36 50.16526 -121.27359 29738 ft 448 kts 225°
2026-05-07 19:36 50.14088 -121.30331 29190 ft 443 kts 225°
2026-05-07 19:36 50.11653 -121.33304 28617 ft 452 kts 225°
2026-05-07 19:37 50.09188 -121.36308 28024 ft 456 kts 225°
2026-05-07 19:37 50.06684 -121.39350 27405 ft 453 kts 225°
2026-05-07 19:37 50.04242 -121.42312 26814 ft 448 kts 225°
2026-05-07 19:37 50.01808 -121.45258 26218 ft 443 kts 224°
2026-05-07 19:38 49.99400 -121.48172 25615 ft 439 kts 224°
2026-05-07 19:38 49.96987 -121.51089 25009 ft 435 kts 224°
2026-05-07 19:38 49.94618 -121.53947 24396 ft 432 kts 224°
2026-05-07 19:38 49.92290 -121.56754 23811 ft 427 kts 224°
2026-05-07 19:39 49.89952 -121.59570 23229 ft 423 kts 224°
2026-05-07 19:39 49.87620 -121.62375 22631 ft 419 kts 224°
2026-05-07 19:39 49.85357 -121.65094 22048 ft 416 kts 223°
2026-05-07 19:39 49.83810 -121.66950 21658 ft 414 kts 223°
2026-05-07 19:40 49.80788 -121.70574 20865 ft 410 kts 222°
2026-05-07 19:40 49.78561 -121.73241 20281 ft 408 kts 222°
2026-05-07 19:40 49.76333 -121.75905 19686 ft 406 kts 221°
2026-05-07 19:40 49.74107 -121.78563 19074 ft 404 kts 221°
2026-05-07 19:41 49.71894 -121.81203 18476 ft 402 kts 221°
2026-05-07 19:41 49.69688 -121.83832 17862 ft 400 kts 221°
2026-05-07 19:41 49.67526 -121.86404 17285 ft 397 kts 220°
2026-05-07 19:41 49.65347 -121.88994 16678 ft 395 kts 220°
2026-05-07 19:42 49.63154 -121.91599 15973 ft 396 kts 220°
2026-05-07 19:42 49.60978 -121.94179 15315 ft 395 kts 220°
2026-05-07 19:42 49.58811 -121.96746 14682 ft 392 kts 219°
2026-05-07 19:42 49.56662 -121.99288 14085 ft 389 kts 219°
2026-05-07 19:43 49.54548 -122.01787 13509 ft 387 kts 219°
2026-05-07 19:43 49.52492 -122.04443 12898 ft 383 kts 226°
2026-05-07 19:43 49.50814 -122.07563 12310 ft 378 kts 237°
2026-05-07 19:43 49.49456 -122.10985 11690 ft 375 kts 240°
2026-05-07 19:44 49.48148 -122.14378 11112 ft 372 kts 240°
2026-05-07 19:44 49.46831 -122.17762 10820 ft 360 kts 240°
2026-05-07 19:44 49.45592 -122.20961 10760 ft 344 kts 240°
2026-05-07 19:44 49.44391 -122.24060 10663 ft 330 kts 239°
2026-05-07 19:45 49.43234 -122.27020 10535 ft 318 kts 239°
2026-05-07 19:45 49.42106 -122.29880 10347 ft 307 kts 239°
2026-05-07 19:45 49.41041 -122.32565 10191 ft 287 kts 239°
2026-05-07 19:45 49.39975 -122.35044 10142 ft 272 kts 232°
2026-05-07 19:46 49.38760 -122.37251 9854 ft 271 kts 229°
2026-05-07 19:46 49.37501 -122.39420 9472 ft 274 kts 229°
2026-05-07 19:46 49.36231 -122.41609 9096 ft 275 kts 229°
2026-05-07 19:46 49.34956 -122.43806 8732 ft 276 kts 228°
2026-05-07 19:47 49.33678 -122.45984 8380 ft 277 kts 228°
2026-05-07 19:47 49.32384 -122.48186 8027 ft 278 kts 228°
2026-05-07 19:47 49.31092 -122.50384 7631 ft 279 kts 228°
2026-05-07 19:47 49.29829 -122.52535 7260 ft 271 kts 228°
2026-05-07 19:48 49.28579 -122.54662 6958 ft 264 kts 228°
2026-05-07 19:48 49.27357 -122.56746 6698 ft 261 kts 228°
2026-05-07 19:48 49.26156 -122.58798 6498 ft 257 kts 228°
2026-05-07 19:48 49.24970 -122.60822 6339 ft 258 kts 228°
2026-05-07 19:49 49.23781 -122.62849 6144 ft 256 kts 228°
2026-05-07 19:49 49.22586 -122.64885 5953 ft 256 kts 228°
2026-05-07 19:49 49.21390 -122.66919 5742 ft 256 kts 228°
2026-05-07 19:49 49.20332 -122.69082 5535 ft 253 kts 237°
2026-05-07 19:50 49.19410 -122.71345 5340 ft 248 kts 238°
2026-05-07 19:50 49.18509 -122.73590 5161 ft 244 kts 238°
2026-05-07 19:50 49.17627 -122.75777 4994 ft 240 kts 238°
2026-05-07 19:50 49.16763 -122.77907 4807 ft 236 kts 238°
2026-05-07 19:51 49.16036 -122.80140 4593 ft 232 kts 258°
2026-05-07 19:51 49.16037 -122.82542 4303 ft 230 kts 280°
2026-05-07 19:51 49.16335 -122.84946 4015 ft 232 kts 282°
2026-05-07 19:51 49.16649 -122.87376 3713 ft 233 kts 282°
2026-05-07 19:52 49.16953 -122.89847 3404 ft 235 kts 281°
2026-05-07 19:52 49.17246 -122.92297 3098 ft 237 kts 281°
2026-05-07 19:52 49.17540 -122.94784 2790 ft 239 kts 281°
2026-05-07 19:52 49.17833 -122.97245 2469 ft 223 kts 281°
2026-05-07 19:53 49.18112 -122.99488 2187 ft 210 kts 282°
2026-05-07 19:53 49.18370 -123.01603 1922 ft 199 kts 281°
2026-05-07 19:53 49.18612 -123.03638 1667 ft 190 kts 281°
2026-05-07 19:53 49.18841 -123.05588 1419 ft 179 kts 281°
2026-05-07 19:54 49.19055 -123.07411 1175 ft 168 kts 281°
2026-05-07 19:54 49.19252 -123.09104 956 ft 158 kts 281°
2026-05-07 19:54 49.19439 -123.10712 741 ft 150 kts 280°
2026-05-07 19:54 49.19617 -123.12250 536 ft 142 kts 280°
2026-05-07 19:55 49.19782 -123.13683 351 ft 134 kts 279°
2026-05-07 19:55 49.19946 -123.15086 163 ft 135 kts 279°
2026-05-07 19:55 49.20106 -123.16476 15 ft 122 kts 279°
2026-05-07 19:55 49.20222 -123.17488 15 ft 69 kts 279°
2026-05-07 19:56 49.20270 -123.17924 15 ft 14 kts 282°
2026-05-07 19:56 49.20290 -123.18073 15 ft 14 kts 281°